Find Starlink 11307

NORAD ID: 61210 Int'l Des: 2024-171 Owner: SPXS Country: US Constellation: starlink operational
LEOCIRCULAR

Current View

Loading 3D Globe...

About Starlink 11307

Starlink 11307 (NORAD 61210) is a starlink constellation satellite (v2 mini d2c) launched Sep 20, 2024 by SPXS of US. It operates in LEO, CIRCULAR orbit with a mass of 960.00 kg.

About Starlink 11307

Description loading...

Upcoming Passes

Passes for default location (London). Set your location on the main map for personalized predictions.

Altitude History

Loading altitude history...

Two-Line Element Set

1 61210U 24171L 26169.92269925 .00000017 00000-0 49990-5 0 9997
2 61210 53.1602 37.5755 0001109 90.6748 269.4397 15.69705670100294
Epoch: Jun 18, 2026 • Age: 32 hours

Current Status

Altitude 360.5 km
Velocity 7.69 km/s
Sub-Earth Point 1.53°N, 30.01°E
Launch Date Sep 20, 2024
Age 1.7 years
Type internet

Technical Details

Classification Payload
Mass 960.00 kg
Dry Mass 910.00 kg
Total Mass 960.00 kg
Length 0.30 m
Diameter 4.10 m
Span 29.00 m
Shape Box + pan
Manufacturer SPXS
Bus Type Starlink V2MD
Phase Status In Orbit
Owner/State SPXS/US

Most Searched